Location: Niverville
(49.6028°N, 97.0419°W)
Time: 21:36:31
(UTC-05:00)

ISS - All Passes

Search period start: 23 August 2016 00:00
Search period end: 02 September 2016 00:00
Orbit: 400 x 403 km, 51.6° (Epoch: 23 August)

Date Brightness Start Highest point End Pass type
(mag) Time Alt. Az. Time Alt. Az. Time Alt. Az.
23 Aug - 11:47:59 10° SSW 11:50:52 29° SE 11:53:46 10° E daylight
23 Aug - 13:23:50 10° WSW 13:27:06 79° NNW 13:30:23 10° ENE daylight
23 Aug - 15:00:28 10° WNW 15:03:43 59° N 15:06:57 10° E daylight
23 Aug - 16:36:57 10° WNW 16:40:12 62° SSW 16:43:25 10° ESE daylight
23 Aug - 18:14:21 10° WSW 18:16:06 14° SW 18:17:51 10° S daylight
24 Aug - 10:55:36 10° S 10:57:57 18° SE 11:00:18 10° E daylight
24 Aug - 12:30:43 10° WSW 12:33:59 77° SSE 12:37:15 10° ENE daylight
24 Aug - 14:07:17 10° W 14:10:31 57° N 14:13:45 10° E daylight
24 Aug - 15:43:49 10° WNW 15:47:06 88° SSW 15:50:22 10° ESE daylight
24 Aug - 17:20:36 10° W 17:23:13 22° SW 17:25:49 10° SSE daylight
25 Aug - 10:04:04 10° SSE 10:05:05 11° SE 10:06:06 10° ESE daylight
25 Aug - 11:37:44 10° SW 11:40:55 52° SSE 11:44:05 10° ENE daylight
25 Aug - 13:14:05 10° W 13:17:20 62° N 13:20:35 10° ENE daylight
25 Aug - 14:50:41 10° WNW 14:53:57 72° NNE 14:57:12 10° E daylight
25 Aug - 16:27:13 10° W 16:30:15 35° SSW 16:33:15 10° SE daylight
26 Aug - 10:44:54 10° SSW 10:47:53 33° SSE 10:50:52 10° E daylight
26 Aug - 12:20:53 10° W 12:24:09 74° NNW 12:27:26 10° ENE daylight
26 Aug - 13:57:31 10° WNW 14:00:46 61° N 14:04:00 10° E daylight
26 Aug - 15:34:00 10° WNW 15:37:13 55° SSW 15:40:24 10° SE daylight
26 Aug - 17:11:43 10° WSW 17:13:04 12° SW 17:14:25 10° SSW daylight
27 Aug - 09:52:24 10° SSW 09:54:55 21° SE 09:57:26 10° E daylight
27 Aug - 11:27:44 10° WSW 11:31:00 84° SSE 11:34:16 10° ENE daylight
27 Aug - 13:04:20 10° W 13:07:33 57° N 13:10:48 10° E daylight
27 Aug - 14:40:50 10° WNW 14:44:07 81° SSW 14:47:23 10° ESE daylight
27 Aug - 16:17:43 10° W 16:20:11 20° SW 16:22:38 10° S daylight
28 Aug - 09:00:28 10° SSE 09:02:01 13° SE 09:03:33 10° ESE daylight
28 Aug - 10:34:40 10° SW 10:37:53 58° SSE 10:41:06 10° ENE daylight
28 Aug - 12:11:06 10° W 12:14:21 60° N 12:17:36 10° ENE daylight
28 Aug - 13:47:41 10° WNW 13:50:58 76° NNE 13:54:13 10° E daylight
28 Aug - 15:24:16 10° W 15:27:13 31° SSW 15:30:09 10° SSE daylight
29 Aug - 09:41:47 10° SW 09:44:50 37° SSE 09:47:53 10° E daylight
29 Aug - 11:17:53 10° W 11:21:09 70° NNW 11:24:25 10° ENE daylight
29 Aug - 12:54:31 10° WNW 12:57:46 63° N 13:01:01 10° E daylight
29 Aug - 14:31:00 10° WNW 14:34:11 49° SSW 14:37:21 10° SE daylight
29 Aug - 16:09:18 10° WSW 16:09:58 10° SW 16:10:39 10° SSW daylight
30 Aug - 08:49:10 10° SSW 08:51:50 23° SE 08:54:31 10° E daylight
30 Aug - 10:24:42 10° WSW 10:27:59 89° NNE 10:31:15 10° ENE daylight
30 Aug - 12:01:19 10° WNW 12:04:33 57° N 12:07:47 10° E daylight
30 Aug - 13:37:49 10° WNW 13:41:05 75° SSW 13:44:20 10° ESE daylight
30 Aug - 15:14:50 10° W 15:17:06 18° SW 15:19:21 10° S daylight
31 Aug - 07:57:01 10° S 07:58:54 15° SE 08:00:48 10° ESE daylight
31 Aug - 09:31:36 10° WSW 09:34:50 64° SSE 09:38:05 10° ENE daylight
31 Aug - 11:08:05 10° W 11:11:20 59° N 11:14:34 10° ENE daylight
31 Aug - 12:44:38 10° WNW 12:47:56 81° NNE 12:51:11 10° ESE daylight
31 Aug - 14:21:16 10° W 14:24:08 28° SW 14:26:58 10° SSE daylight
01 Sep - 08:38:39 10° SW 08:41:45 41° SSE 08:44:52 10° ENE daylight
01 Sep - 10:14:51 10° W 10:18:06 67° N 10:21:21 10° ENE daylight
01 Sep - 11:51:28 10° WNW 11:54:43 65° N 11:57:59 10° E daylight
01 Sep - 13:27:57 10° WNW 13:31:06 44° SSW 13:34:13 10° SE daylight
